Flag for Ireland Weather past 2 weeks in Cork, Ireland

Now
60 °F

Low clouds.


Feels Like: 60 °F
Forecast: 56 / 63 °F
Wind: 8 mph from South

Location: Cork Airport

Current Time: Jul 3, 2015 at 9:59:05 AM

Latest Report: Jul 3, 2015 at 9:00 AM


Visibility: 19 mi

Pressure: 30.13 "Hg

Humidity: 95%

Dew point: 59 °F

Location of CorkLocation

Historic Weather in Cork — Graph

°F

Cork temperature yesterday

Maximum temperature yesterday: 63 °F (at 3:00 PM)
Minimum temperature yesterday: 49 °F (at 5:00 AM)
Average temperature yesterday: 57 °F

Past Weeks' High & Low Weather Summary

 TemperatureHumidityPressure
High69 °F (Jun 19, 4:00 PM)100% (Jun 20, 7:00 AM)30.32 "Hg (Jun 20, 7:00 AM)
Low47 °F (Jun 19, 5:00 AM)51% (Jun 18, 5:00 PM)29.80 "Hg (Jul 1, 3:00 PM)
Average58 °F87%30.05 "Hg
* Reported Jun 18 8:00 AM — Jul 3 8:00 AM, Cork, Weather by CustomWeather, © 2015

Note: Actual official high and low records may vary slightly from our data, if they occured in-between our weather recording intervals... More about our weather records

Advertising

Cork weather history for previous 24 hours

 ConditionsComfort  
Time TempWeatherWind HumidityBarometerVisibility
8:00 AM
Fri, Jul 3
60 °FLow clouds.9 mph98%30.13 "Hg16 mi
7:00 AM59 °FLow clouds.8 mph100%30.13 "Hg12 mi
6:00 AM58 °FLow clouds.7 mph100%30.13 "Hg16 mi
5:00 AM58 °FLow clouds.7 mph100%30.13 "Hg12 mi
4:00 AM58 °FLow clouds.6 mph100%30.13 "Hg12 mi
3:00 AM58 °FLow clouds.6 mph100%30.14 "Hg12 mi
2:00 AM58 °FLow clouds.5 mph100%30.14 "Hg12 mi
1:00 AM58 °FLow clouds.5 mph100%30.15 "Hg10 mi
12:00 AM58 °FLow clouds.5 mph100%30.15 "Hg12 mi
11:00 PM
Thu, Jul 2
58 °FLow clouds.5 mph100%30.15 "Hg12 mi
10:00 PM57 °FPassing clouds.3 mph99%30.14 "Hg19 mi
9:00 PM59 °FLow clouds.6 mph96%30.12 "Hg31 mi
8:00 PM61 °FPartly sunny.7 mph88%30.11 "Hg37 mi
7:00 PM62 °FScattered clouds.7 mph81%30.09 "Hg37 mi
6:00 PM62 °FPartly sunny.7 mph87%30.09 "Hg37 mi
5:00 PM63 °FPartly sunny.8 mph79%30.07 "Hg37 mi
4:00 PM62 °FPartly sunny.7 mph78%30.06 "Hg37 mi
3:00 PM63 °FPartly sunny.8 mph80%30.05 "Hg31 mi
2:00 PM62 °FOvercast.7 mph80%30.04 "Hg19 mi
1:00 PM61 °FOvercast.6 mph78%30.03 "Hg31 mi
12:00 PM61 °FOvercast.6 mph80%30.02 "Hg31 mi
11:00 AM62 °FPartly sunny.6 mph85%30.01 "Hg31 mi
10:00 AM59 °FOvercast.6 mph85%30.01 "Hg25 mi
9:00 AM58 °FPartly sunny.5 mph93%30.01 "Hg25 mi
Weather by CustomWeather, © 2015

See weather overviewHow to use our weather pages